Location: Bilsen
(53.7722°N, 9.8765°E)
Time: 04:57:51
(UTC+00:00)

CZ-2D R/B - Pass Details

Date: 18 February 2020
Orbit: 792 x 845 km, 98.7° (Epoch: 29 March)

Event Time Altitude Azimuth Distance (km) Brightness Sun altitude
Rises 02:38:10 0° 10° (N) 3,307 5.8 -34.6°
Reaches altitude 10° 02:40:46 10° 359° (N) 2,374 4.8 -34.3°
Enters shadow 02:41:49 15° 352° (N) 2,046 4.4 -34.2°
